GFSFLT1_prec_cloud_105.txt.gz
Cloud_Cover
0 56 6 98 28 19 26 33 14 21 33 100 99 100 100 100 100 100 100 100 100 100 100 99 100 89 36 81 52 80 8 65
49 97 27 100 56 40 37 60 32 50 96 100 99 100 100 100 100 100 100 100 100 100 100 100 100 100 100 100 100 100 100 100
100 100 54 49 93 37 100 61 67 41 18 59 72 87 100 100 100 100 100 100 100 100 100 100 100 100 100 100 100 100 100 100
49 100 38 45 71 72 59 60 91 25 7 76 98 99 100 100 100 100 100 100 100 100 100 100 100 100 100 85 79 100 100 100
100 100 53 72 100 45 44 100 51 6 69 64 77 100 100 100 100 100 100 100 100 100 100 100 100 86 100 99 100 100 100 100
100 100 46 94 100 70 92 85 28 25 16 88 100 87 64 100 100 100 100 100 100 100 100 100 100 100 100 100 100 100 100 100
100 100 100 96 49 76 97 100 100 79 31 74 77 78 100 100 100 100 100 100 100 100 100 100 100 100 100 100 100 100 100 100
100 100 100 100 92 71 96 100 100 100 100 92 100 97 100 100 100 100 100 100 100 100 100 100 100 100 100 100 100 100 100 100
100 100 100 100 72 70 79 100 100 100 100 100 100 100 100 100 100 100 100 100 100 100 100 100 100 100 100 100 100 100 100 100
100 96 87 99 100 65 82 100 100 100 45 96 100 100 100 100 100 100 100 100 100 100 100 100 100 100 100 100 100 100 100 100
100 78 38 50 76 66 83 79 57 71 40 15 19 76 100 100 100 100 100 100 100 100 100 100 100 100 100 100 100 100 100 100
100 99 6 18 63 45 70 65 49 38 47 52 5 29 88 92 97 100 100 100 100 100 100 100 100 100 100 100 100 100 100 100
100 100 8 100 100 85 100 90 35 100 100 100 28 0 20 74 93 100 100 100 100 100 100 100 100 100 100 100 100 100 100 100
100 97 63 100 100 90 87 100 100 90 19 97 93 6 66 28 16 65 100 100 100 100 100 100 100 100 100 100 100 100 100 100
86 100 85 98 100 99 94 100 100 100 100 68 58 58 46 90 98 9 21 84 100 100 100 100 100 100 100 100 100 100 100 100
100 66 68 100 100 100 100 100 100 100 100 100 96 99 67 76 100 69 27 14 2 35 33 2 2 13 90 100 99 73 99 100
100 100 88 100 100 100 100 100 100 100 100 100 100 100 100 91 93 95 62 36 22 5 2 0 0 0 5 5 30 67 100 100
100 100 100 100 100 100 100 100 100 100 100 100 100 100 100 100 100 100 100 88 27 42 5 2 4 4 100 100 64 13 67 99
100 100 100 100 100 100 100 100 100 100 100 100 100 100 100 100 100 100 100 100 94 48 58 33 81 94 100 100 60 98 100 100

GFSFLT1_prec_cloud_108.txt.gz
Cloud_Cover
22 5 4 7 10 10 60 55 87 36 63 86 100 100 100 100 100 100 100 100 100 100 100 100 100 100 100 99 87 100 100 63
45 12 41 56 47 47 55 84 64 88 100 100 100 100 100 100 100 100 100 100 100 100 100 100 100 100 100 100 100 100 100 5
5 31 99 97 96 73 74 98 99 100 100 100 100 97 98 100 100 100 100 100 100 100 100 100 100 100 100 100 100 100 82 16
13 94 37 95 100 100 100 89 99 100 77 100 98 91 100 100 100 100 100 100 100 100 100 100 100 100 100 100 100 99 100 95
8 99 30 73 100 99 73 32 100 81 65 97 89 98 100 100 100 100 100 100 100 100 100 100 100 100 100 100 100 60 100 83
100 91 12 40 100 87 81 88 100 50 27 9 99 91 100 100 100 100 100 100 100 100 100 100 100 100 100 100 100 100 100 100
58 5 75 100 100 97 100 100 100 30 44 13 86 100 89 100 100 100 100 100 100 100 100 100 100 100 100 100 100 100 100 100
5 39 48 80 100 100 100 100 100 100 29 76 50 70 78 100 100 100 100 100 100 100 100 100 100 100 100 100 100 100 100 100
5 5 20 100 100 100 100 100 100 100 42 100 100 100 74 100 100 100 100 100 100 100 100 100 100 100 100 100 100 100 100 100
5 1 2 100 100 100 100 100 100 100 96 100 100 97 100 100 100 100 100 100 100 100 100 100 100 100 100 100 100 100 100 100
16 5 30 100 100 100 100 100 100 100 100 100 100 100 99 100 100 100 100 100 100 100 100 100 100 100 100 100 100 100 100 100
61 2 99 100 100 100 100 100 100 100 100 100 100 99 98 92 100 100 100 100 100 100 100 100 100 100 100 100 100 100 100 100
100 100 100 100 100 100 100 100 100 100 100 100 83 53 94 100 100 100 100 100 100 100 100 100 100 100 100 100 100 100 100 100
100 100 100 100 100 100 100 100 96 99 100 100 100 100 100 100 100 100 100 100 100 100 100 100 100 100 100 100 100 100 100 100
82 100 100 100 100 100 100 100 81 100 100 100 100 99 100 100 100 100 100 100 100 100 100 100 100 100 100 100 100 100 100 100
100 100 100 100 100 100 100 98 75 100 100 100 100 94 93 100 100 100 100 100 100 100 100 100 100 100 100 100 100 100 100 100
100 100 100 100 100 100 100 100 83 100 100 100 100 100 100 75 100 100 100 100 100 100 100 100 100 100 100 100 100 100 100 100
100 100 100 100 100 100 100 98 87 100 100 100 100 100 100 94 86 28 99 100 100 100 100 100 100 99 95 36 56 98 100 100
100 100 100 100 100 100 100 100 100 92 100 100 100 100 63 87 99 100 100 100 100 100 100 100 80 70 100 100 92 88 99 100

GFSFLT1_prec_cloud_111.txt.gz
Cloud_Cover
4 3 3 5 57 5 5 10 35 99 100 100 100 99 98 85 100 100 100 100 100 100 100 100 100 100 100 100 100 100 99 100
0 0 0 5 5 4 5 33 70 99 100 100 100 100 100 100 100 100 100 100 100 100 100 100 100 100 100 100 100 100 100 100
5 5 5 62 26 27 52 47 81 99 100 100 58 94 100 100 100 100 100 100 100 100 100 100 100 100 100 100 95 88 98 92
5 5 34 38 64 100 100 96 96 85 54 92 69 98 100 100 100 97 100 100 100 100 100 100 100 100 100 100 100 94 100 100
11 8 40 2 94 100 100 98 98 100 92 72 50 100 86 67 90 100 100 100 100 100 100 100 100 100 100 100 100 100 100 100
5 5 5 0 29 100 100 60 79 100 100 95 90 100 98 100 100 99 100 100 100 100 100 100 100 100 100 100 100 100 100 100
5 4 5 5 97 97 100 68 100 100 100 100 100 100 100 100 100 100 100 100 100 100 100 100 100 100 100 100 100 100 100 100
8 40 6 18 100 100 100 100 100 100 99 98 79 68 99 47 99 100 100 100 100 100 100 100 100 100 100 100 100 100 100 100
100 80 6 61 100 100 100 100 100 100 98 89 46 53 61 65 100 100 100 100 100 100 100 100 100 100 100 100 100 100 100 100
100 20 18 63 100 100 100 100 100 100 100 94 100 62 93 100 100 100 100 100 100 100 100 100 100 100 100 100 100 100 100 100
93 49 39 85 99 100 100 100 100 100 100 100 100 83 100 100 95 100 100 100 100 100 100 100 100 100 100 100 100 100 100 100
72 100 100 100 100 100 100 100 100 100 100 100 96 100 100 100 100 100 100 100 100 100 100 100 100 100 100 100 100 100 100 100
31 79 100 100 100 100 100 100 100 100 100 100 96 100 100 88 100 100 100 100 100 100 100 100 100 100 100 100 100 100 100 100
13 47 100 100 100 100 100 100 100 100 100 100 99 100 100 100 100 100 100 100 100 100 100 100 100 100 100 100 100 100 100 100
17 76 100 100 100 100 100 100 100 100 100 100 100 100 100 100 100 100 100 100 100 100 100 100 100 100 100 100 100 100 100 100
42 93 100 100 100 100 100 100 100 100 100 100 100 100 100 100 100 100 100 100 93 99 100 100 100 100 100 100 100 100 100 100
100 94 100 100 100 100 100 100 100 100 100 100 100 100 100 100 100 100 100 100 100 100 100 100 100 100 100 100 100 100 100 100
95 100 100 100 100 100 100 100 100 100 100 100 100 100 100 100 100 100 100 100 100 100 100 100 100 100 100 100 100 100 100 100
42 78 100 100 100 100 100 100 100 100 100 100 100 100 100 100 100 100 100 97 100 100 100 100 100 100 100 100 100 100 100 100

GFSFLT1_prec_cloud_114.txt.gz
Cloud_Cover
6 5 5 13 4 5 5 5 5 80 90 100 100 100 100 94 95 100 72 87 100 100 100 100 100 100 100 100 100 100 100 100
95 75 38 85 92 68 5 0 0 100 100 100 100 88 53 99 52 93 100 100 100 100 100 100 100 100 100 100 100 100 100 100
100 100 100 97 16 10 6 3 1 100 100 62 59 72 84 100 100 68 86 100 100 100 100 100 100 100 100 100 100 100 100 100
100 94 62 61 33 26 7 4 1 97 63 97 48 80 100 77 97 99 100 100 100 100 100 100 100 100 100 100 100 100 100 100
100 100 38 100 86 22 5 4 6 95 67 41 18 4 20 27 50 71 50 97 100 100 100 100 100 100 100 100 100 100 100 100
100 100 100 99 100 90 86 44 75 96 60 33 12 0 5 17 80 85 97 90 92 100 100 100 100 100 100 100 100 100 100 100
72 98 100 98 94 98 100 100 100 100 76 45 12 4 28 38 62 60 80 84 100 100 100 100 100 100 100 100 100 100 100 100
100 100 100 77 91 96 100 100 100 100 98 47 17 28 49 99 55 99 68 100 100 100 100 100 100 100 100 100 100 100 100 100
14 34 81 100 92 79 100 100 100 100 83 36 53 88 93 86 85 81 55 93 100 100 100 100 100 100 100 100 100 100 100 100
5 8 99 100 100 100 100 100 100 100 54 55 57 100 98 100 98 73 100 94 100 100 100 100 100 100 100 100 100 100 100 100
48 89 95 100 100 100 100 100 100 100 80 94 97 100 100 98 83 91 100 100 100 100 100 100 100 100 100 100 100 100 100 100
100 100 100 100 100 100 100 100 100 100 100 88 100 100 100 75 85 87 100 100 100 100 100 100 100 100 100 100 100 100 100 100
100 97 100 100 100 100 100 100 100 100 98 100 100 100 100 81 97 100 100 100 100 100 100 100 100 100 100 100 100 100 100 100
86 5 16 100 100 100 100 100 100 100 99 100 100 100 100 86 88 99 100 100 100 100 100 100 100 100 100 100 100 100 100 100
98 11 20 100 100 100 100 100 100 100 100 100 100 100 100 100 92 77 100 100 100 100 100 100 100 100 100 100 100 100 100 100
100 100 81 94 100 100 100 100 100 100 100 100 100 100 100 89 61 73 87 95 100 100 100 100 100 100 100 100 100 100 100 100
82 100 100 30 100 100 100 100 100 100 100 100 100 100 100 100 100 71 63 100 88 96 100 100 100 100 100 100 100 100 100 100
2 38 75 15 31 100 100 100 100 100 100 100 100 100 100 100 100 100 100 100 100 100 88 95 100 100 100 100 100 100 100 100
4 2 7 62 19 94 100 100 100 100 100 100 100 100 100 100 100 100 100 100 100 100 93 90 97 99 100 100 100 100 100 100

GFSFLT1_prec_cloud_117.txt.gz
Cloud_Cover
7 14 5 28 22 100 5 72 71 5 51 44 34 45 98 100 100 99 90 63 89 34 90 97 91 100 100 100 100 100 100 100
93 26 8 52 84 100 5 62 12 5 26 43 90 100 100 100 100 100 88 26 70 58 71 93 88 100 100 100 100 100 100 100
83 48 54 100 100 100 100 100 45 35 79 100 90 36 58 71 96 100 84 53 89 95 84 79 80 100 100 100 100 100 100 100
100 100 100 100 100 100 100 100 37 75 100 100 80 92 99 100 100 84 100 91 80 85 80 100 100 100 100 100 100 100 100 100
100 100 100 100 100 100 100 100 100 43 61 83 49 46 70 32 29 39 91 65 76 97 100 100 100 100 100 100 100 100 100 100
51 33 98 93 100 100 100 100 97 99 47 34 84 24 19 0 0 25 100 48 73 92 100 100 100 100 100 100 100 100 100 100
60 25 16 48 77 87 92 100 89 100 100 72 86 37 8 0 3 7 96 46 71 69 97 100 100 100 100 100 100 100 100 100
100 94 95 71 63 35 71 100 100 100 100 100 100 87 32 8 6 17 100 100 86 99 93 100 100 100 100 100 100 100 100 100
100 94 24 5 5 21 100 100 100 100 100 100 100 90 46 10 14 13 47 9 75 100 99 100 100 100 100 100 100 100 100 100
92 99 7 5 23 63 100 100 100 100 100 99 100 100 37 10 18 99 92 57 44 99 100 100 100 100 100 100 100 100 100 100
52 65 62 82 100 100 100 100 100 100 100 100 100 100 56 29 46 100 72 68 68 98 100 100 100 100 100 100 100 100 100 100
100 94 97 96 100 99 100 100 100 100 100 100 100 100 92 83 98 100 79 53 93 99 100 100 100 100 100 100 100 100 100 100
100 77 34 100 100 100 100 100 100 100 100 100 100 100 100 100 100 100 95 98 100 100 100 100 100 100 100 100 100 100 100 100
49 24 14 61 100 100 100 100 100 100 100 100 100 100 100 91 100 100 100 100 100 100 100 100 100 100 100 100 100 100 100 100
59 18 21 33 92 100 100 100 100 100 100 100 100 100 97 100 100 100 100 100 100 100 100 100 100 100 100 100 100 100 100 100
80 95 100 100 76 100 100 100 100 100 100 100 100 99 19 100 100 100 100 96 100 100 100 100 100 100 100 100 100 100 100 100
100 100 100 100 49 76 100 100 100 100 100 100 96 87 100 100 100 100 100 100 100 100 100 100 100 100 100 100 100 100 100 100
98 100 100 100 100 59 100 100 100 100 100 100 100 100 100 100 100 100 100 100 100 100 100 100 100 100 100 100 100 100 100 100
8 88 100 100 100 100 100 97 100 100 100 100 100 100 100 100 100 100 100 100 100 100 100 100 100 100 100 100 100 100 100 100

GFSFLT1_prec_cloud_120.txt.gz
Cloud_Cover
18 100 100 100 96 21 10 94 5 5 100 20 5 5 6 9 12 5 1 0 1 0 0 3 11 56 51 99 100 100 100 100
100 98 98 45 74 93 100 9 60 5 25 20 6 12 58 40 100 100 32 60 0 4 0 13 96 38 37 100 100 100 100 100
100 100 100 93 35 21 95 96 13 5 7 42 84 99 94 100 100 100 100 88 1 0 12 0 78 100 79 100 83 96 100 100
100 100 100 100 100 94 100 100 100 76 28 100 100 100 100 97 100 100 100 100 93 50 27 35 10 67 100 100 97 100 100 100
100 100 100 100 100 100 100 100 100 100 100 100 100 100 100 99 100 100 100 100 100 100 37 100 31 73 72 100 100 100 100 100
100 100 94 100 100 100 100 100 100 100 100 100 100 100 100 100 98 27 60 86 55 15 85 97 82 84 99 100 100 100 100 100
90 100 100 79 57 99 100 100 100 100 88 74 96 95 75 27 15 42 11 59 96 69 51 100 100 80 88 94 100 100 100 100
100 98 74 100 100 97 93 70 42 99 82 5 23 36 69 100 6 4 2 92 73 99 58 100 100 100 88 100 100 100 100 100
100 100 100 64 34 91 100 99 6 92 63 51 24 100 97 100 95 40 1 43 100 74 99 100 100 99 100 100 100 100 100 100
100 100 100 100 20 57 17 21 56 73 100 99 100 100 100 100 100 77 58 40 62 42 100 100 100 100 100 100 100 100 100 100
100 100 100 100 75 80 97 100 100 100 100 99 100 100 100 100 100 38 62 73 54 77 100 100 100 100 100 100 100 100 100 100
100 100 100 100 100 100 82 100 100 100 100 100 100 100 100 100 100 94 100 100 82 100 100 100 100 100 100 100 100 100 100 100
100 100 100 100 99 99 100 100 100 100 100 100 100 100 100 100 100 97 100 72 100 100 92 70 100 100 100 100 100 100 100 100
100 95 100 100 100 100 100 100 100 100 100 100 100 100 100 100 100 100 100 94 100 100 98 83 100 100 100 100 100 100 100 100
100 100 100 100 100 100 100 100 100 100 100 100 100 100 100 100 100 100 90 97 100 100 98 94 100 100 100 100 100 100 100 100
100 95 87 66 100 100 100 100 100 100 100 100 100 100 100 100 100 100 99 85 100 100 100 100 100 100 100 100 100 100 100 100
98 100 100 100 8 44 63 73 100 100 100 100 100 100 100 43 100 100 100 100 100 100 100 100 100 100 100 100 100 100 100 100
100 100 100 33 32 60 68 100 100 100 100 100 100 100 100 100 100 100 100 100 100 100 100 100 100 100 100 100 100 100 100 100
100 100 100 75 35 100 100 100 100 100 100 100 100 100 100 99 100 100 100 100 100 100 100 100 100 100 100 100 100 100 100 100

GFSFLT1_prec_cloud_123.txt.gz
Cloud_Cover
88 65 73 100 100 100 100 100 100 58 5 5 5 11 70 5 5 4 18 47 1 9 0 0 0 36 44 63 100 37 94 100
100 100 100 36 85 83 11 5 100 100 20 36 35 5 34 7 43 22 0 47 66 36 8 6 23 33 43 4 14 5 73 97
100 100 82 78 72 100 100 51 100 100 46 8 19 52 19 5 17 96 97 50 99 91 23 37 52 85 97 45 5 48 60 84
100 100 71 97 100 100 100 100 100 75 99 6 25 18 90 62 34 100 100 100 100 81 50 36 50 68 93 55 15 12 52 83
100 100 100 100 100 100 99 100 100 100 100 98 76 93 100 100 100 100 100 100 100 100 68 13 26 52 88 100 32 12 45 100
100 100 100 100 98 76 100 100 100 100 100 100 69 5 100 100 100 100 100 100 100 100 100 95 83 74 98 94 100 60 71 100
100 100 100 100 100 100 100 100 100 100 100 100 100 100 100 100 100 100 100 100 100 100 100 100 100 100 100 100 100 86 40 98
35 5 61 100 100 100 100 100 100 100 100 100 100 100 91 55 98 89 100 81 92 100 100 86 100 100 100 100 100 100 58 83
13 5 11 90 100 100 100 100 100 100 100 100 100 69 7 63 82 97 15 21 92 98 100 98 100 100 100 100 100 100 94 59
100 100 98 69 97 100 100 100 99 100 100 86 74 96 64 43 34 100 98 89 100 95 88 99 74 100 100 100 100 100 100 100
100 100 100 100 100 100 100 64 79 91 100 100 83 100 80 100 100 100 100 100 100 88 83 91 100 100 100 100 100 100 100 100
100 100 100 100 100 100 100 100 100 100 100 100 100 100 100 100 100 100 100 100 100 100 60 99 98 100 100 100 100 100 100 100
100 100 100 100 100 100 100 100 100 100 100 100 100 86 100 100 100 100 100 100 100 100 100 100 100 100 100 100 100 100 100 100
100 100 100 100 100 100 100 100 100 100 100 100 100 100 100 100 100 100 100 100 100 70 99 97 100 100 100 100 100 100 100 100
100 100 100 100 100 100 100 100 100 100 100 100 100 100 100 96 100 100 100 100 100 96 100 100 90 100 100 100 100 100 100 100
100 100 100 100 100 100 100 100 100 100 100 100 100 100 100 100 100 100 100 100 88 27 100 100 100 100 100 100 100 100 100 100
100 100 100 100 100 100 100 100 100 100 100 100 100 100 100 100 100 100 100 100 96 45 100 100 100 100 100 100 100 100 100 100
100 100 100 87 100 100 100 100 100 95 100 100 100 100 100 100 100 100 100 100 100 98 73 99 100 100 100 100 100 100 100 100
100 100 100 100 91 100 100 100 90 100 100 91 100 100 100 100 100 100 100 100 100 100 99 100 100 100 100 100 100 100 100 100

GFSFLT1_prec_cloud_129.txt.gz
Cloud_Cover
4 24 100 100 71 100 100 100 100 100 99 62 97 100 100 100 100 100 100 100 100 14 20 50 44 62 60 30 14 9 26 39
0 1 98 100 100 98 100 100 100 100 100 98 100 100 100 100 100 100 100 100 100 56 23 50 57 44 77 15 22 5 58 59
0 0 0 100 100 100 83 100 100 98 100 100 64 56 99 100 100 100 100 100 100 56 46 64 95 66 71 52 68 45 32 68
0 0 0 6 97 100 100 100 100 100 100 100 100 90 89 95 100 100 100 100 100 80 100 75 91 55 100 84 80 100 87 87
0 0 0 63 54 100 100 100 100 100 100 100 100 59 78 100 100 100 100 100 100 100 100 100 100 98 88 82 60 100 100 100
0 0 27 78 93 99 98 98 100 100 100 100 100 100 100 99 100 100 100 100 100 100 100 100 100 100 100 100 100 89 88 100
0 0 6 100 24 51 40 40 100 100 100 100 100 100 100 100 100 100 100 100 100 100 100 100 100 100 100 100 100 100 62 39
0 0 4 100 28 100 100 100 100 100 100 100 100 100 100 100 97 100 100 100 100 100 100 100 100 100 100 100 100 100 100 92
75 37 86 93 100 100 100 100 100 100 100 100 100 100 99 100 85 100 100 100 100 100 100 100 100 100 100 100 100 100 100 100
100 100 100 100 100 100 100 99 100 100 100 100 100 100 100 100 100 40 100 100 100 100 100 100 100 100 100 100 100 100 100 100
100 100 100 100 100 100 100 100 100 100 100 100 100 100 100 100 68 86 100 100 100 100 100 100 100 100 100 100 100 100 100 100
100 100 100 100 100 100 100 100 100 100 100 100 100 87 100 100 100 100 100 100 100 100 100 100 100 100 87 92 100 84 100 100
100 100 100 100 100 100 100 100 100 100 100 100 100 100 100 100 100 100 100 100 100 100 100 100 100 100 100 100 100 100 100 100
100 100 100 100 100 100 100 100 100 100 100 100 100 100 100 100 100 100 100 100 100 100 100 100 100 100 100 100 100 100 100 100
100 100 100 100 100 100 100 100 100 100 100 100 100 100 100 100 100 100 100 100 100 100 100 100 100 100 100 100 100 100 100 100
100 100 100 100 100 100 100 100 100 100 100 100 100 100 100 100 100 100 100 100 100 100 100 100 100 100 80 38 100 100 100 100
100 100 100 100 100 100 100 100 100 100 100 100 100 100 100 100 100 100 100 100 98 100 100 100 100 99 100 100 100 100 100 100
100 100 100 100 100 100 100 100 100 100 100 100 100 100 100 100 100 100 100 100 100 100 100 98 100 98 100 100 100 100 100 100
100 100 100 100 100 100 100 100 100 100 100 100 100 100 100 100 100 100 100 100 100 100 97 100 88 98 100 100 100 100 100 100

GFSFLT1_prec_cloud_132.txt.gz
Cloud_Cover
0 0 2 71 99 65 68 95 96 100 100 100 96 100 100 100 100 100 100 100 100 100 30 66 85 100 100 47 22 12 15 97
0 0 0 0 33 100 100 92 40 100 100 100 100 91 100 100 100 100 100 100 100 100 100 80 87 100 100 40 21 16 75 64
0 0 0 0 0 9 100 52 100 82 100 100 100 100 100 89 100 100 100 100 100 100 94 91 100 100 100 79 13 45 64 47
0 0 0 0 0 0 2 100 80 71 23 99 100 100 91 100 100 100 100 100 100 100 100 100 100 100 100 100 8 4 51 96
0 0 0 0 0 0 0 27 100 32 5 57 100 100 98 100 100 100 100 100 100 100 100 100 100 100 100 100 46 18 90 57
0 0 0 0 0 0 0 0 64 98 5 16 100 100 100 100 100 100 100 100 100 100 100 100 100 97 100 100 86 61 40 6
0 0 0 0 0 0 0 5 0 38 4 24 100 100 100 98 100 100 100 100 100 100 100 100 100 100 100 100 60 94 84 5
41 6 2 0 0 0 0 1 2 4 4 50 100 100 100 100 100 93 100 100 100 100 100 100 100 100 100 100 100 100 100 100
98 100 100 50 38 0 0 0 6 19 5 70 100 100 100 100 100 85 100 100 100 100 100 100 100 86 100 100 100 100 100 100
100 100 100 100 100 100 100 73 88 100 36 100 100 100 100 100 87 100 100 100 100 100 100 100 100 100 100 100 100 100 100 100
100 100 100 100 100 100 100 98 100 100 83 85 93 100 100 79 100 100 100 100 100 100 100 100 100 100 100 100 100 100 100 100
100 100 100 100 100 100 100 96 100 100 100 100 100 100 100 100 100 100 100 100 95 100 100 100 100 100 100 100 100 100 100 100
100 100 100 100 100 100 100 100 100 100 100 100 100 100 100 100 100 100 100 100 100 100 100 100 100 100 100 100 100 100 100 100
100 100 100 100 100 100 100 100 100 100 100 100 100 100 100 100 100 100 100 100 100 100 100 100 100 100 100 100 100 100 88 91
100 100 100 100 100 100 100 100 100 100 100 100 100 100 100 100 100 100 100 100 100 100 100 100 100 100 100 100 100 100 100 100
100 100 100 100 100 100 100 100 100 100 100 100 100 100 100 100 100 100 100 100 100 100 100 100 100 100 100 100 100 100 100 100
100 100 100 100 100 100 100 100 100 100 100 100 100 100 100 100 100 100 100 100 100 100 100 100 100 100 100 100 100 100 100 100
100 100 100 100 100 100 100 100 100 100 100 100 100 100 100 100 100 100 100 100 100 100 100 100 100 100 100 100 100 96 100 100
100 100 100 100 100 100 100 100 100 100 100 100 100 100 100 100 100 100 100 100 100 100 100 100 99 100 100 100 100 100 100 100

GFSFLT1_prec_cloud_135.txt.gz
Cloud_Cover
0 0 0 0 0 22 3 0 5 7 25 94 99 100 6 10 100 100 100 100 56 16 100 100 100 100 100 100 83 41 5 47
0 0 0 0 0 0 0 5 3 100 51 95 100 100 82 56 97 100 100 100 100 63 100 100 100 100 100 98 51 41 90 96
0 0 0 0 0 0 0 0 5 4 100 77 92 40 100 100 94 100 100 100 100 100 98 100 100 100 100 85 42 95 81 100
0 0 0 0 0 0 0 0 0 5 33 100 54 100 90 100 77 96 100 100 100 100 100 100 100 100 99 100 62 43 44 100
0 0 0 0 0 0 0 0 0 0 100 78 100 98 71 100 95 100 100 100 100 100 100 100 100 100 100 100 84 48 28 75
8 40 5 0 0 0 0 0 0 0 6 98 38 63 11 100 100 100 100 100 100 100 100 100 100 100 100 100 100 99 53 52
100 100 98 7 0 0 0 0 0 0 0 5 60 0 98 100 100 100 100 100 100 100 100 100 100 100 100 100 100 96 71 65
100 100 100 100 44 0 0 0 0 0 0 0 9 7 53 100 100 100 100 100 100 100 100 100 100 100 100 100 100 100 72 59
100 100 100 100 100 75 0 0 0 0 0 0 2 5 92 65 100 98 47 100 100 100 100 100 100 100 100 92 100 100 96 63
100 100 100 100 100 100 100 16 0 0 0 0 0 7 32 90 100 89 100 100 100 100 100 100 100 100 100 100 100 100 100 100
100 100 100 100 100 100 100 100 100 85 42 57 39 63 46 100 100 100 96 92 73 100 100 100 100 100 100 100 100 100 100 100
100 100 100 100 100 100 100 100 100 100 100 100 100 100 94 80 100 81 92 99 100 100 100 100 100 100 100 100 100 100 100 100
100 100 100 100 100 100 100 100 100 100 100 100 100 100 100 100 100 100 100 100 100 100 100 100 100 100 100 100 100 100 100 100
100 100 100 100 100 100 100 100 100 100 64 100 100 100 100 100 100 100 100 100 100 93 100 100 100 100 100 100 100 100 100 100
100 100 100 100 100 100 100 100 100 99 91 99 100 100 100 100 100 100 100 100 100 100 100 100 100 100 100 100 100 100 100 100
100 100 100 100 100 100 100 100 100 100 100 100 100 100 100 100 100 100 100 100 100 100 100 100 100 100 100 100 100 100 100 100
100 100 100 100 100 100 100 100 100 100 100 100 100 100 100 100 100 100 100 100 100 100 100 100 100 100 100 100 100 100 100 100
100 100 100 100 100 100 100 100 100 100 100 100 100 100 100 100 100 100 100 100 100 100 100 100 100 100 100 100 100 100 100 100
100 100 100 100 100 100 100 100 100 100 100 100 100 100 100 100 100 100 100 100 100 100 100 100 100 100 100 100 100 100 100 100

GFSFLT1_prec_cloud_141.txt.gz
Cloud_Cover
100 100 100 100 82 19 82 79 100 74 5 5 17 5 3 39 6 0 0 39 0 0 0 0 98 100 100 100 100 100 100 97
100 100 100 100 100 100 100 11 5 5 2 2 0 0 0 4 78 0 0 26 0 0 0 2 68 100 100 100 100 100 100 100
7 5 0 0 4 27 11 8 2 1 4 5 1 0 0 0 49 50 0 0 0 0 0 5 2 100 100 100 75 100 100 100
6 5 1 19 3 70 33 35 25 4 0 3 0 0 0 43 25 100 31 4 5 20 0 8 24 88 100 100 96 100 100 100
5 9 10 53 7 100 78 73 80 24 0 0 0 0 0 4 56 72 100 62 10 64 5 0 16 44 100 100 100 100 100 100
5 5 98 100 84 100 100 100 100 80 1 4 0 0 0 0 96 91 100 100 5 100 9 2 10 6 100 100 100 100 100 100
18 44 100 99 72 100 100 100 100 89 36 5 4 0 0 0 28 98 100 100 51 100 4 68 5 11 78 100 100 100 100 100
56 99 96 71 84 100 100 97 100 74 0 0 2 5 1 60 0 79 100 100 100 100 78 21 30 29 61 100 100 100 100 100
82 94 100 100 92 100 100 100 100 100 73 47 5 4 2 100 6 31 74 98 100 100 100 85 98 88 36 100 100 100 100 100
100 89 100 100 100 100 100 100 100 100 99 8 3 8 34 32 0 11 98 100 100 100 100 100 100 100 55 51 99 100 100 100
92 96 82 100 100 100 100 100 100 100 100 99 6 46 19 92 0 100 100 100 100 100 100 100 100 96 97 97 82 99 100 100
59 74 100 100 100 100 100 100 100 100 100 100 100 49 76 100 100 100 100 100 100 100 100 100 100 100 100 100 100 100 100 100
55 87 92 100 100 100 100 100 100 100 100 100 100 100 100 99 100 100 100 100 100 100 100 100 96 100 100 100 100 100 100 100
97 100 74 99 100 100 100 100 100 100 100 100 100 100 100 100 100 100 100 100 99 11 94 100 79 100 100 100 100 100 100 100
100 54 100 100 100 100 100 100 100 100 100 100 100 100 100 100 100 100 100 100 100 100 94 96 100 100 100 100 100 100 100 100
92 100 100 100 100 100 100 100 100 100 100 100 100 100 100 100 100 100 100 100 100 100 100 100 100 100 100 100 100 100 100 100
86 100 100 100 100 100 100 100 100 100 100 100 100 100 100 100 100 100 100 100 100 100 100 100 100 100 100 100 100 100 100 100
100 100 100 100 100 100 100 100 100 100 100 100 100 100 100 100 100 87 100 100 100 100 100 100 100 100 100 100 100 100 100 100
100 100 100 100 100 100 100 100 100 100 100 100 100 100 100 100 100 100 100 100 100 100 100 100 100 100 100 100 100 100 100 100

GFSFLT1_prec_cloud_144.txt.gz
Cloud_Cover
0 0 0 4 15 57 100 100 100 100 100 100 100 100 100 91 100 98 100 100 92 16 0 0 0 0 0 0 21 100 100 59
0 0 0 0 1 5 5 6 72 85 88 100 100 82 56 45 17 100 84 8 59 98 4 0 0 0 0 0 0 100 100 70
0 0 0 0 0 0 0 0 3 37 75 25 2 0 3 0 3 4 100 100 63 99 5 0 0 0 0 0 0 73 100 100
0 0 0 0 2 3 0 2 0 3 8 14 5 0 0 0 0 0 0 96 99 29 5 5 0 0 0 0 0 4 100 100
4 5 4 5 5 5 5 11 98 91 72 71 84 69 0 0 0 0 0 5 99 15 17 4 2 0 0 0 0 0 89 100
5 5 5 5 5 5 5 36 100 90 97 100 100 97 1 0 0 0 0 1 100 100 100 37 6 0 0 0 0 0 10 100
38 15 4 5 5 6 31 76 100 100 100 100 100 100 76 1 0 0 0 82 100 100 99 85 6 31 8 0 0 0 0 73
5 5 24 5 88 80 55 67 100 100 100 100 100 100 51 2 3 0 0 0 93 93 40 100 100 100 98 12 0 0 0 4
5 5 21 5 95 100 69 80 100 100 100 100 100 100 39 2 5 0 0 91 0 54 100 100 100 100 100 100 54 0 0 0
5 5 5 5 97 96 54 100 100 100 100 100 100 100 53 6 0 0 0 100 94 100 100 100 100 100 100 100 92 0 0 0
5 5 5 5 96 100 61 100 100 100 100 100 100 100 100 48 3 1 3 100 100 100 100 100 100 100 100 100 100 66 0 7
5 5 5 5 94 100 77 100 100 100 100 100 100 100 100 100 95 100 100 100 100 100 100 100 100 100 100 100 100 99 53 26
5 5 5 5 34 100 100 100 100 100 100 100 100 100 100 100 100 100 100 100 100 100 100 100 100 100 100 100 100 99 96 99
5 5 5 5 7 59 100 100 100 100 100 100 100 100 100 100 100 100 100 100 100 100 100 100 100 100 100 100 100 100 100 100
5 5 5 5 28 97 100 100 92 100 100 100 100 100 100 100 100 100 100 100 100 100 100 100 100 100 100 100 100 100 100 100
5 5 5 17 43 34 100 100 96 100 100 100 100 100 100 100 100 100 100 100 100 100 100 100 100 100 100 100 96 100 100 100
5 5 5 100 68 15 60 100 100 100 100 100 100 100 100 100 100 100 100 100 100 100 100 100 100 100 100 100 100 100 100 100
5 5 5 100 100 100 34 95 100 100 100 100 100 100 100 100 100 100 100 100 100 100 100 100 100 100 100 100 100 100 100 100
5 5 5 24 100 100 99 42 97 100 100 100 100 100 100 100 100 100 100 100 100 100 100 100 100 100 100 100 100 100 100 100